Weather History for Burlington, NC

Change the Weather History Date:

Tuesday, July 30, 2013

  Actual Average Record
Temperature  
Mean Temperature 74 °F -  
Max Temperature 84 °F 87 °F 100 °F (1993)
Min Temperature 63 °F 66 °F 55 °F (1983)
Cooling Degree Days 8    
Growing Degree Days 24 (Base 50)    
Moisture  
Dew Point 63 °F    
Average Humidity 70    
Maximum Humidity 93    
Minimum Humidity 45    
Precipitation  
Precipitation 0.00 in - - ()
Sea Level Pressure  
Sea Level Pressure 30.18 in    
Wind  
Wind Speed 1 mph (NE)    
Max Wind Speed 6 mph    
Max Gust Speed -    
Visibility 10 miles    
Events      
Averages and records for this station are not official NWS values.
T = Trace of Precipitation, MM = Missing Value Source: NWS Daily Summary

Daily Weather History Graph

Daily Weather History Graph

Search for Another Location

Airport:

Trip Planner

Search our weather history database for the weather conditions in past years. The results will help you decide how hot, cold, wet, or windy it might be!

Date:

Astronomy

Jul. 30, 2013 Rise Set
Actual Time 6:23 AM EDT 8:24 PM EDT
Civil Twilight 5:55 AM EDT 8:52 PM EDT
Nautical Twilight 5:20 AM EDT 9:27 PM EDT
Astronomical Twilight 4:43 AM EDT 10:04 PM EDT
Moon 12:39 AM EDT (7/30) 2:43 PM EDT (7/30)
Length of Visible Light 14h 57m
Length of Day
14h 00m
Last Quarter, 41% of the Moon is Illuminated
Jul 30
Last Quarter
Aug 6
New
Aug 14
First Quarter
Aug 20
Full
Aug 28
Last Quarter

Hourly Weather History & Observations

Time (EDT) Temp. Heat Index Dew Point Humidity Pressure Visibility Wind Dir Wind Speed Gust Speed Precip Events Conditions
12:54 AM 66.9 °F - 62.1 °F 84% 30.17 in 10.0 mi Calm Calm - N/A   Clear
1:54 AM 64.9 °F - 63.0 °F 93% 30.18 in 10.0 mi Calm Calm - N/A   Clear
2:54 AM 64.9 °F - 62.1 °F 90% 30.18 in 10.0 mi Calm Calm - N/A   Clear
3:54 AM 64.9 °F - 60.1 °F 84% 30.17 in 10.0 mi NNE 3.5 mph - N/A   Clear
4:54 AM 64.9 °F - 59.0 °F 81% 30.18 in 10.0 mi Calm Calm - N/A   Clear
5:54 AM 64.0 °F - 57.9 °F 80% 30.19 in 10.0 mi Calm Calm - N/A   Clear
6:54 AM 63.0 °F - 57.9 °F 84% 30.20 in 10.0 mi Calm Calm - N/A   Clear
7:54 AM 68.0 °F - 60.1 °F 76% 30.23 in 10.0 mi Calm Calm - N/A   Clear
8:54 AM 71.1 °F - 60.1 °F 68% 30.23 in 10.0 mi NE 5.8 mph - N/A   Clear
9:54 AM 75.0 °F - 61.0 °F 62% 30.23 in 10.0 mi Calm Calm - N/A   Clear
10:54 AM 79.0 °F - 62.1 °F 56% 30.22 in 10.0 mi NNE 5.8 mph - N/A   Clear
11:54 AM 81.0 °F 81.1 °F 57.9 °F 45% 30.22 in 10.0 mi East 5.8 mph - N/A   Clear
12:54 PM 82.0 °F 83.0 °F 62.1 °F 51% 30.20 in 10.0 mi ENE 3.5 mph - N/A   Clear
1:54 PM 82.0 °F 83.0 °F 62.1 °F 51% 30.19 in 10.0 mi Variable 3.5 mph - N/A   Clear
2:54 PM 82.0 °F 83.1 °F 63.0 °F 52% 30.17 in 10.0 mi Calm Calm - N/A   Scattered Clouds
3:54 PM 84.0 °F 85.8 °F 64.9 °F 53% 30.16 in 10.0 mi West 5.8 mph - N/A   Mostly Cloudy
4:54 PM 84.0 °F 85.4 °F 64.0 °F 51% 30.15 in 10.0 mi Variable 3.5 mph - N/A   Clear
5:54 PM 82.0 °F 83.4 °F 64.0 °F 54% 30.15 in 10.0 mi SW 3.5 mph - N/A   Clear
6:54 PM 81.0 °F 83.0 °F 66.0 °F 60% 30.16 in 10.0 mi Calm Calm - N/A   Clear
7:54 PM 77.0 °F - 70.0 °F 79% 30.15 in 10.0 mi Calm Calm - N/A   Clear
8:51 PM 75.2 °F - 66.2 °F 73% 30.16 in 10.0 mi NE 4.6 mph 179.5 mph N/A   Squalls
8:54 PM 75.0 °F - 66.0 °F 73% 30.15 in 10.0 mi NE 3.5 mph 179.5 mph N/A   Clear
9:54 PM 73.9 °F - 68.0 °F 82% 30.16 in 10.0 mi Calm Calm - N/A   Clear
10:54 PM 73.9 °F - 68.0 °F 82% 30.16 in 10.0 mi Calm Calm - N/A   Clear
11:54 PM 73.0 °F - 69.1 °F 87% 30.16 in 10.0 mi Calm Calm - N/A   Clear